Wednesday, April 23, 2014
18:47 UTC
  |  Log In   |  Register Free
Airport Search:

Petaluma Municipal Airport
(O69)

Petaluma Municipal Airport Diagram
No Airport Diagram Available

FAA data valid effective April 3, 2014 until May 29, 2014 (unless otherwise noted).

 
 
 
 
 
 
 
 
 
 
 
 
 
 

Current Aviation Weather for Petaluma Municipal Airport (O69)

The most recent METAR observation for KDVO was updated at: 1755 UTC
METAR Summary (Translated METAR)
KDVO
231755Z AUTO 36006KT 10SM CLR 15/05 A3016 RMK AO2
KAPC
(13.6 nm NE from KDVO)
231754Z VRB03KT 10SM CLR 14/04 A3015 RMK AO2 SLP200 T01440044 10144 20028 53001
TAF Summary (Translated TAF)
KSTS
(25 nm NW from KDVO)
231737Z 2318/2418 33004KT P6SM SKC FM232000 22008KT P6SM SKC FM240400 VRB03KT P6SM BKN100 FM241100 VRB03KT P6SM BKN025 BKN060
  Airport Weather Conditions for O69

Current weather conditions are
not available for O69


The nearest NOAA weather station
is at DVO, (7.2 nm SE from O69)
  
 Current Weather at DVO
59° F
Fair
North winds at 5.8 mph
DVO NOAA Radar

Pressure: 30.16 in
Humidity: 48%
Wind: North at 5.8 MPH (5 KT)
Dew Point: 39.2°F
Visibility: 10.00 mi


Airport Weather Forecast for O69

Translated METAR and TAF for KDVO
Translated METAR for KDVO (1847 UTC 23 April 2014)
found at http://aviationweather.gov/adds/metars/
 
METAR text: KDVO 231835Z AUTO 31008KT 10SM CLR 17/05 A3016 RMK AO2
Conditions at: KDVO (NOVATO/GNOSS FLD, CA, US) observed 1835 UTC 23 April 2014
Temperature: 17.0°C (63°F)
Dewpoint: 5.0°C (41°F) [RH = 45%]
Pressure (altimeter): 30.16 inches Hg (1021.4 mb)
Winds: from the NW (310 degrees) at 9 MPH (8 knots; 4.2 m/s)
Visibility: 10 or more miles (16+ km)
Ceiling: at least 12,000 feet AGL
Clouds: sky clear below 12,000 feet AGL
Weather: automated observation with no human augmentation;
there may or may not be significant weather present at this time
Translated TAF for KDVO

There is no translated TAF available for this airport

Find All Airport Services Find A Hotel Find A Rental Car Find A Golf Course Find A Restaurant $100 Hamburger



FBO's on the Field
FBO Company Facility Photos Services Transportation Aviation Fuel Prices: Prices include tax
Catering Weather Repair Courtesy Rental Type 100LL JetA JetA+ MOGAS 8087
 
Petaluma Municipal Airport

Currently rated 4.8 by 1 person
FS:Ascent
Last Updated: Mar-19
Login to update fuel prices
SS:
Contact Petaluma Municipal AirportMore FBO Information
 
Add another FBO Facility Photos Catering Weather Repair Courtesy Rental Type 100LL JetA JetA+ MOGAS 8087
Services Transportation Aviation Fuel Prices: Prices include tax


GlobalAir.com Airport Resource Center model-print
model-print
model-print
model-print